Location: Ethel Rock
(53.4667°N, 4.5667°W)
Time: 00:46:55
(UTC+00:00)

Cosmos 44 Rocket - Pass Details

Date: 24 October 2020
Orbit: 642 x 748 km, 65.1° (Epoch: 26 November)

Event Time Altitude Azimuth Distance (km) Brightness Sun altitude
Exits shadow 05:23:30 23° 289° (WNW) 1,544 4.5 -15.3°
Maximum altitude 05:26:01 37° 240° (WSW) 1,150 4.0 -15.0°
Drops below altitude 10° 05:30:44 10° 174° (S) 2,257 6.0 -14.3°
Sets 05:33:15 0° 166° (SSE) 3,180 6.9 -13.9°
